User: anonymous
Location: Clinton NY
(43.0598°N, 75.3602°W)
Time: 03:07:46
(UTC-04:00)
Language:

Iridium 11 - Orbit

View from above orbital plane
View from above orbital plane
View from above satellite
View from above satellite

Ground track
Ground track

The orbit data is extracted from the following two-line orbital elements,

1 25578U 98074B   14206.43018514  .00000172  00000-0  54375-4 0  9554
2 25578 086.3996 337.7509 0002407 111.5769 308.4477 14.34216276825797
Epoch (UTC): 25 July 2014 10:19:27
Eccentricity: 0.0002407
inclination: 86.3996°
perigee height: 776 km
apogee height: 779 km
right ascension of ascending node: 337.7509°
argument of perigee: 111.5769°
revolutions per day: 14.34216276
mean anomaly at epoch: 308.4477°
orbit number at epoch: 82579

The dashed part of the orbit path shows where the satellite is in the earth's shadow,  

DLR